TimeCDT,TemperatureF,Dew PointF,Humidity,Sea Level PressureIn,VisibilityMPH,Wind Direction,Wind SpeedMPH,Gust SpeedMPH,PrecipitationIn,Events,Conditions,WindDirDegrees,DateUTC
12:12 AM,48.2,44.6,87,29.18,10.0,Calm,Calm,-,N/A,,Overcast,0,2012-10-18 05:12:00
12:53 AM,48.0,44.1,86,29.21,10.0,Calm,Calm,-,N/A,,Overcast,0,2012-10-18 05:53:00
1:30 AM,48.2,42.8,82,29.20,10.0,Calm,Calm,-,N/A,,Overcast,0,2012-10-18 06:30:00
1:53 AM,46.9,43.0,86,29.21,10.0,Calm,Calm,-,N/A,,Overcast,0,2012-10-18 06:53:00
2:53 AM,46.9,42.1,83,29.20,10.0,Calm,Calm,-,N/A,,Overcast,0,2012-10-18 07:53:00
2:59 AM,46.4,42.8,87,29.18,10.0,Calm,Calm,-,N/A,,Overcast,0,2012-10-18 07:59:00
3:46 AM,46.4,42.8,87,29.18,10.0,Calm,Calm,-,N/A,,Overcast,0,2012-10-18 08:46:00
3:50 AM,46.4,42.8,87,29.18,10.0,Calm,Calm,-,N/A,,Overcast,0,2012-10-18 08:50:00
3:53 AM,46.0,42.1,86,29.19,10.0,Calm,Calm,-,N/A,,Overcast,0,2012-10-18 08:53:00
4:28 AM,44.6,41.0,87,29.17,10.0,NNE,3.5,-,N/A,,Overcast,20,2012-10-18 09:28:00
4:53 AM,46.0,42.1,86,29.18,10.0,NNE,4.6,-,N/A,,Overcast,30,2012-10-18 09:53:00
5:16 AM,46.4,42.8,87,29.16,10.0,North,4.6,-,0.00,Rain,Light Rain,10,2012-10-18 10:16:00
5:53 AM,46.0,43.0,89,29.18,9.0,North,3.5,-,0.01,Rain,Light Rain,10,2012-10-18 10:53:00
6:53 AM,46.0,43.0,89,29.18,7.0,NNW,3.5,-,0.09,Rain,Light Rain,340,2012-10-18 11:53:00
7:53 AM,46.0,44.1,93,29.16,8.0,NNW,4.6,-,0.06,Rain,Light Rain,340,2012-10-18 12:53:00
8:53 AM,46.0,44.1,93,29.15,4.0,WSW,4.6,-,0.05,Rain,Light Rain,240,2012-10-18 13:53:00
9:45 AM,46.4,44.6,93,29.13,8.0,SSW,3.5,-,0.01,Rain,Light Rain,200,2012-10-18 14:45:00
9:53 AM,46.0,44.1,93,29.16,7.0,Calm,Calm,-,0.01,Rain,Light Rain,0,2012-10-18 14:53:00
10:05 AM,46.4,44.6,93,29.14,7.0,Calm,Calm,-,0.00,Rain,Light Rain,0,2012-10-18 15:05:00
10:41 AM,46.4,44.6,93,29.13,10.0,West,4.6,-,0.00,,Overcast,280,2012-10-18 15:41:00
10:53 AM,46.9,44.1,90,29.15,10.0,WNW,4.6,-,0.00,,Overcast,290,2012-10-18 15:53:00
11:10 AM,48.2,44.6,87,29.13,10.0,West,5.8,-,N/A,,Overcast,280,2012-10-18 16:10:00
11:25 AM,48.2,44.6,87,29.13,5.0,West,5.8,-,N/A,,Overcast,270,2012-10-18 16:25:00
11:53 AM,48.0,45.0,89,29.16,4.0,West,4.6,-,N/A,,Overcast,260,2012-10-18 16:53:00
12:50 PM,48.2,46.4,93,29.17,2.0,SSW,6.9,-,N/A,,Overcast,200,2012-10-18 17:50:00
12:53 PM,48.0,45.0,89,29.19,1.8,SSW,5.8,-,N/A,,Overcast,200,2012-10-18 17:53:00
1:09 PM,48.2,44.6,87,29.17,2.0,SSW,4.6,-,0.01,,Overcast,210,2012-10-18 18:09:00
1:35 PM,48.2,44.6,87,29.18,4.0,SSW,6.9,-,0.01,,Overcast,200,2012-10-18 18:35:00
1:53 PM,48.0,46.0,93,29.21,10.0,SSW,6.9,-,0.01,,Overcast,200,2012-10-18 18:53:00
2:04 PM,48.2,46.4,93,29.19,9.0,SSW,5.8,-,N/A,,Overcast,210,2012-10-18 19:04:00
2:32 PM,48.2,46.4,93,29.20,10.0,SSW,6.9,-,N/A,,Overcast,210,2012-10-18 19:32:00
2:53 PM,50.0,46.0,86,29.22,10.0,WSW,5.8,-,N/A,,Overcast,240,2012-10-18 19:53:00
3:08 PM,50.0,46.4,87,29.20,10.0,Variable,5.8,-,N/A,,Overcast,0,2012-10-18 20:08:00
3:17 PM,50.0,44.6,82,29.21,10.0,SW,6.9,-,N/A,,Overcast,220,2012-10-18 20:17:00
3:53 PM,50.0,45.0,83,29.25,10.0,Variable,4.6,-,N/A,,Overcast,0,2012-10-18 20:53:00
4:33 PM,50.0,44.6,82,29.26,10.0,Calm,Calm,-,N/A,,Overcast,0,2012-10-18 21:33:00
4:53 PM,50.0,45.0,83,29.29,10.0,SSW,3.5,-,N/A,,Overcast,200,2012-10-18 21:53:00
5:05 PM,50.0,44.6,82,29.28,10.0,Calm,Calm,-,N/A,,Overcast,0,2012-10-18 22:05:00
5:53 PM,50.0,45.0,83,29.32,10.0,Calm,Calm,-,N/A,,Overcast,0,2012-10-18 22:53:00
6:53 PM,48.9,45.0,86,29.36,10.0,Calm,Calm,-,0.00,Rain,Light Rain,0,2012-10-18 23:53:00
7:39 PM,48.2,44.6,87,29.34,10.0,Calm,Calm,-,0.01,Rain,Light Rain,0,2012-10-19 00:39:00
7:53 PM,46.9,45.0,93,29.36,10.0,Calm,Calm,-,0.01,Rain,Light Rain,0,2012-10-19 00:53:00
8:41 PM,46.4,44.6,93,29.35,10.0,Calm,Calm,-,0.00,Rain,Light Rain,0,2012-10-19 01:41:00
8:53 PM,46.9,45.0,93,29.38,10.0,Calm,Calm,-,0.00,Rain,Light Rain,0,2012-10-19 01:53:00
9:19 PM,46.4,44.6,93,29.36,3.0,Calm,Calm,-,0.01,Rain,Light Rain,0,2012-10-19 02:19:00
9:43 PM,46.4,44.6,93,29.36,4.0,Calm,Calm,-,0.02,Rain,Light Rain,0,2012-10-19 02:43:00
9:53 PM,46.9,46.0,97,29.39,4.0,Calm,Calm,-,0.02,Rain,Light Rain,0,2012-10-19 02:53:00
10:20 PM,46.4,44.6,93,29.38,2.5,Calm,Calm,-,0.02,Rain,Light Rain,0,2012-10-19 03:20:00
10:30 PM,46.4,44.6,93,29.37,3.0,WSW,3.5,-,0.02,Rain,Light Rain,240,2012-10-19 03:30:00
10:51 PM,46.4,46.4,100,29.38,3.0,Calm,Calm,-,0.03,Rain,Light Rain,0,2012-10-19 03:51:00
10:53 PM,46.9,46.0,97,29.40,3.0,Calm,Calm,-,0.03,Rain,Light Rain,0,2012-10-19 03:53:00
11:48 PM,46.4,46.4,100,29.39,4.0,Calm,Calm,-,0.02,Rain,Light Rain,0,2012-10-19 04:48:00
11:53 PM,46.9,46.0,97,29.42,4.0,SSW,3.5,-,0.02,Rain,Light Rain,210,2012-10-19 04:53:00